Wind_Speed
41 43 44 46 48 48 48 47 46 45 44 44 42 40 38 35 33 31 30 29 29 29 30 30 29 30 30 31 31 30 30 31 31 32 33 33 34 34 33 32 32 32 32
37 38 38 39 40 41 41 42 42 42 42 42 39 37 35 34 33 30 29 29 29 30 30 30 30 31 32 32 32 33 33 33 33 34 35 35 35 35 35 34 33 33 33
33 33 34 34 35 35 37 38 39 38 37 36 36 34 31 31 30 30 30 29 29 30 30 30 31 32 32 33 34 34 35 36 36 36 36 37 37 37 36 35 34 33 33
28 28 27 27 27 28 31 33 34 35 35 34 32 30 30 30 29 29 28 28 29 29 29 30 31 32 33 34 35 36 37 38 38 39 39 38 38 38 38 37 36 35 34
25 24 24 23 22 23 24 26 27 28 29 29 28 28 28 27 27 26 26 26 27 27 28 30 31 32 33 34 35 36 37 38 39 40 40 40 40 40 40 39 38 37 36
23 22 23 22 20 19 19 20 20 21 22 23 24 24 23 23 23 23 24 25 26 27 28 29 30 32 32 33 34 35 36 37 38 39 40 40 40 41 41 40 39 38 38
21 20 21 20 17 15 15 15 16 17 19 19 19 19 18 18 18 19 21 22 23 24 26 27 29 29 31 32 33 34 35 36 37 39 39 40 40 40 40 40 40 39 39
18 18 18 17 16 14 14 14 14 13 13 13 14 15 16 16 17 18 19 20 22 23 24 25 26 27 28 30 31 32 34 36 37 38 39 40 40 40 40 39 39 39 39
17 16 15 14 14 14 12 11 10 11 11 11 12 13 14 14 15 16 17 17 18 19 20 21 23 25 27 28 30 32 33 35 36 37 38 39 39 39 39 39 38 38 38
15 14 13 12 12 12 11 10 9 9 10 10 11 11 12 12 13 13 13 14 15 16 18 20 22 24 26 28 29 31 33 34 35 35 36 36 36 36 36 36 36 36 36
14 13 12 11 10 10 10 10 9 9 9 9 10 10 11 10 10 10 11 12 13 15 17 19 21 23 24 26 28 29 30 31 32 32 32 32 33 33 33 33 33 34 34
13 12 11 10 10 10 9 9 9 9 9 9 9 9 9 9 9 9 10 10 12 14 16 18 20 22 23 25 26 28 28 29 29 29 29 29 29 29 30 31 31 31 32
13 12 12 11 11 10 9 9 9 9 9 9 9 8 8 8 8 8 9 10 11 13 15 17 19 21 22 24 26 27 27 26 26 26 26 26 26 26 26 27 28 28 29
15 13 13 12 12 12 12 11 11 11 10 10 10 9 9 9 9 9 9 10 12 13 15 16 18 20 22 24 26 26 25 25 24 24 24 24 24 24 24 24 25 25 26
17 16 14 13 13 12 12 12 12 12 11 11 11 10 10 10 10 10 11 11 12 13 14 15 17 20 22 24 25 26 26 25 25 24 24 24 23 23 23 23 23 23 24
19 18 17 15 15 14 14 13 13 12 12 12 12 12 12 12 12 12 12 12 12 12 14 15 17 20 22 24 25 25 25 25 25 25 24 23 23 22 22 21 21 21 22
21 20 19 18 17 17 16 16 15 14 14 13 13 13 13 13 13 13 13 12 12 13 14 15 17 19 21 23 24 25 26 26 26 25 24 23 22 22 22 21 20 20 21
23 22 22 21 20 19 19 18 18 17 16 16 16 15 15 15 15 15 14 14 14 14 14 15 16 18 20 22 23 25 26 27 27 27 26 24 23 22 22 21 20 19 19
24 24 23 23 22 22 21 21 20 20 19 18 18 17 17 17 16 16 16 15 15 15 15 16 17 18 20 22 24 25 26 28 28 28 28 26 25 24 22 21 20 19 19
25 24 24 24 24 23 23 23 23 23 22 21 21 20 19 19 18 18 17 17 17 16 17 17 18 19 20 22 24 26 27 29 29 29 29 28 26 25 23 22 21 19 19
26 26 25 24 24 25 25 25 25 25 25 24 24 23 22 21 20 20 19 19 18 18 18 19 20 20 21 23 25 26 28 29 31 31 31 30 28 26 24 23 22 20 19
28 27 26 25 24 24 24 25 26 26 26 26 26 25 24 23 22 22 21 21 20 19 19 20 21 22 23 24 26 27 29 30 31 32 32 32 30 27 26 24 22 21 20
27 26 25 24 23 23 23 24 25 25 26 27 27 26 25 24 24 23 23 22 21 21 21 21 22 23 24 25 26 28 29 31 32 33 33 33 31 29 27 25 24 22 21
27 26 25 24 23 22 22 22 24 25 26 27 27 27 26 26 25 24 24 23 22 22 22 23 23 24 25 25 27 28 30 31 33 33 34 34 33 31 29 27 25 23 22
27 26 25 24 24 22 22 22 22 23 24 26 27 27 27 27 26 26 25 24 23 23 23 23 24 24 25 26 27 28 30 31 33 34 35 35 34 32 30 28 26 24 23
29 27 26 25 24 23 22 22 22 22 23 24 25 26 27 27 27 26 26 25 24 23 23 23 24 25 26 27 28 29 30 32 34 35 36 35 34 33 31 29 27 25 24
Wind_Direction
281 277 273 270 268 267 266 266 265 264 261 259 255 255 252 249 250 252 254 259 262 263 265 267 270 271 273 274 276 277 278 278 277 277 278 279 280 282 283 283 280 277 274
287 281 276 272 267 265 262 261 262 260 258 255 252 248 247 247 248 251 255 260 262 264 266 269 270 272 273 275 277 278 278 278 278 278 278 278 277 279 280 281 279 277 274
292 286 278 272 267 264 260 257 257 256 254 250 247 246 244 246 248 252 256 260 263 266 268 270 272 274 275 277 278 279 279 279 279 279 278 278 277 277 278 278 277 277 274
299 295 284 274 268 266 260 254 254 253 252 250 245 245 246 246 248 253 257 261 265 268 271 273 274 276 277 279 280 280 280 280 280 280 279 277 277 276 275 275 275 275 275
300 296 289 280 269 263 260 255 253 250 250 246 245 247 246 247 250 254 260 265 269 271 273 275 277 278 280 281 281 282 282 281 281 280 279 278 276 275 274 273 272 271 272
301 297 293 286 278 270 262 252 245 243 244 242 244 245 246 250 253 258 263 268 271 273 275 277 279 281 282 283 284 284 284 283 283 282 280 278 276 274 272 271 269 268 267
303 299 295 292 286 279 267 264 257 252 250 252 251 251 254 256 259 265 268 271 273 275 277 280 282 284 285 286 286 286 286 285 284 283 281 279 277 275 273 270 268 266 264
302 300 297 294 290 289 284 279 275 270 262 255 254 257 259 260 263 267 270 273 275 278 281 283 284 286 287 289 289 290 290 289 287 285 283 281 278 276 273 271 268 265 262
301 299 296 289 287 287 284 282 277 275 269 265 262 260 261 262 266 268 270 274 277 280 283 286 288 290 292 293 294 295 294 293 290 288 285 283 280 276 273 270 267 265 262
295 295 289 283 279 279 278 277 273 268 264 261 259 258 259 261 264 267 270 274 279 284 288 292 294 297 298 300 301 301 300 298 295 291 288 284 281 278 274 270 266 263 261
289 287 284 277 270 268 266 264 264 259 255 250 250 252 254 255 259 264 270 276 283 290 295 299 301 303 306 308 309 309 306 303 299 295 292 288 285 281 276 272 267 263 260
282 277 274 270 266 264 259 255 254 255 254 252 249 245 245 247 254 264 272 282 292 298 302 305 308 311 315 318 318 317 315 311 306 301 296 293 289 285 280 274 269 265 260
276 269 264 262 261 257 254 252 250 249 248 248 246 244 249 253 260 267 277 289 297 302 307 311 316 321 324 326 326 324 321 318 314 310 305 299 294 291 286 279 272 267 262
269 264 260 258 255 251 248 248 246 245 245 246 247 248 252 255 259 267 277 288 297 306 312 319 325 331 333 333 332 329 327 325 321 317 314 308 302 297 291 285 278 269 262
261 260 257 253 249 247 246 244 243 244 244 244 245 248 251 254 259 269 279 289 297 306 316 325 332 335 337 337 337 335 332 329 326 322 319 315 309 303 297 290 283 273 263
255 254 253 250 247 245 245 245 245 244 245 246 247 251 255 259 264 270 278 287 295 306 316 326 333 337 339 340 340 339 338 334 331 328 323 320 315 310 305 298 288 277 267
252 250 250 249 247 247 246 246 246 246 247 247 251 256 260 262 265 267 274 282 291 303 314 324 331 336 339 341 341 341 341 341 338 334 329 324 320 315 310 305 296 285 272
249 248 248 248 248 248 248 247 246 246 247 249 252 256 259 262 264 265 270 278 287 298 309 318 325 332 337 340 342 342 342 342 341 340 336 330 325 320 314 309 303 293 281
248 247 247 247 248 249 249 248 248 248 250 251 253 256 258 260 262 264 269 275 283 292 302 311 318 325 331 335 337 339 340 340 340 340 338 334 329 324 318 313 307 298 287
248 248 248 248 248 249 249 249 250 251 252 253 254 256 257 259 261 263 268 274 280 286 294 303 310 317 323 329 332 334 336 338 338 338 338 336 332 328 322 316 310 302 293
247 249 249 249 250 250 250 250 251 252 254 255 255 256 257 259 260 262 266 272 278 283 290 297 303 308 314 321 326 329 331 333 335 336 337 336 333 329 325 319 313 306 298
247 247 248 250 251 251 250 251 252 254 255 255 256 256 257 258 259 261 265 270 275 281 287 293 298 304 309 315 320 324 327 329 331 332 334 334 332 328 324 320 315 309 301
245 246 247 248 250 252 253 253 253 254 256 257 257 257 256 257 259 261 264 268 273 279 284 290 294 300 306 311 316 319 322 325 326 329 331 332 331 328 324 320 315 309 303
240 242 243 245 249 252 256 257 257 257 258 259 259 257 256 256 258 261 264 268 272 277 283 288 293 298 304 308 311 314 318 321 322 324 327 329 328 326 323 319 315 310 303
236 237 240 244 247 252 256 258 261 262 262 261 261 258 257 256 257 260 264 268 271 276 281 287 292 296 301 306 310 313 316 318 319 321 323 325 325 324 322 319 315 311 305
234 235 239 243 245 250 254 257 260 263 264 264 263 260 258 257 258 260 263 267 271 275 280 286 291 295 299 303 307 311 314 317 318 319 320 321 322 321 319 317 314 311 306
Height
5754 5751 5749 5748 5748 5749 5750 5750 5751 5751 5752 5752 5753 5755 5756 5758 5760 5762 5765 5767 5769 5770 5771 5772 5772 5773 5773 5773 5772 5772 5771 5771 5770 5769 5767 5766 5764 5763 5762 5760 5759 5758 5757
5741 5738 5735 5734 5734 5735 5736 5737 5738 5740 5741 5742 5743 5745 5747 5749 5752 5754 5756 5759 5760 5762 5763 5764 5764 5764 5765 5764 5764 5763 5763 5762 5761 5760 5758 5757 5756 5755 5753 5752 5751 5749 5749
5731 5727 5725 5724 5723 5724 5725 5726 5727 5728 5729 5731 5733 5735 5738 5740 5743 5745 5748 5750 5752 5753 5754 5755 5755 5756 5756 5755 5755 5754 5753 5752 5751 5750 5749 5748 5746 5746 5744 5743 5742 5741 5740
5723 5720 5717 5715 5714 5714 5715 5716 5717 5719 5721 5723 5725 5727 5729 5732 5735 5737 5740 5742 5744 5745 5745 5746 5747 5747 5746 5746 5745 5744 5743 5742 5741 5740 5739 5737 5736 5735 5734 5734 5733 5732 5731
5718 5715 5712 5710 5709 5708 5708 5709 5710 5711 5714 5716 5718 5720 5722 5724 5727 5730 5732 5734 5735 5736 5737 5738 5738 5737 5737 5736 5735 5734 5733 5731 5730 5728 5727 5726 5726 5725 5724 5723 5723 5722 5722
5714 5710 5708 5707 5705 5704 5704 5704 5705 5706 5708 5710 5711 5713 5715 5718 5720 5722 5725 5726 5728 5729 5729 5729 5729 5729 5728 5727 5726 5724 5723 5721 5719 5717 5715 5714 5713 5713 5712 5712 5712 5712 5712
5709 5706 5704 5703 5701 5700 5700 5700 5701 5702 5703 5705 5706 5708 5710 5712 5714 5716 5718 5720 5721 5721 5721 5721 5721 5720 5719 5718 5716 5715 5713 5710 5708 5706 5704 5702 5701 5700 5700 5699 5699 5700 5700
5706 5703 5701 5699 5698 5697 5697 5697 5697 5698 5699 5700 5702 5703 5705 5707 5709 5711 5712 5713 5714 5714 5714 5714 5713 5712 5711 5709 5707 5705 5702 5700 5697 5695 5693 5690 5689 5688 5687 5687 5687 5688 5688
5703 5700 5698 5696 5695 5694 5694 5694 5694 5695 5696 5697 5698 5699 5701 5702 5704 5705 5706 5707 5708 5708 5708 5707 5706 5705 5703 5701 5699 5696 5693 5689 5686 5684 5681 5679 5677 5676 5675 5675 5675 5676 5677
5699 5697 5695 5694 5693 5692 5691 5691 5691 5692 5692 5693 5694 5695 5697 5698 5699 5700 5701 5702 5703 5703 5702 5702 5700 5698 5696 5694 5690 5687 5683 5679 5676 5672 5670 5667 5665 5664 5663 5663 5663 5664 5665
5695 5694 5692 5691 5690 5689 5689 5688 5689 5689 5689 5690 5691 5692 5693 5694 5695 5696 5697 5698 5698 5698 5697 5696 5694 5692 5689 5686 5682 5678 5674 5670 5666 5662 5659 5657 5654 5653 5652 5652 5652 5652 5653
5691 5690 5689 5688 5687 5687 5686 5686 5686 5686 5687 5687 5688 5689 5690 5691 5692 5693 5694 5694 5694 5693 5692 5691 5689 5686 5683 5679 5675 5670 5666 5662 5658 5654 5650 5647 5645 5643 5641 5641 5641 5642 5643
5687 5686 5686 5685 5684 5684 5684 5684 5684 5684 5684 5685 5685 5686 5687 5688 5688 5689 5690 5690 5690 5689 5687 5686 5683 5680 5677 5673 5668 5664 5659 5655 5651 5646 5643 5640 5637 5634 5633 5632 5632 5632 5633
5683 5682 5682 5681 5681 5681 5681 5681 5681 5681 5682 5682 5683 5683 5684 5685 5685 5686 5686 5686 5686 5684 5683 5681 5678 5675 5671 5667 5663 5658 5653 5649 5644 5640 5636 5633 5630 5627 5625 5623 5623 5622 5623
5677 5677 5677 5677 5677 5677 5677 5678 5678 5678 5679 5679 5680 5680 5681 5682 5682 5683 5683 5682 5681 5680 5678 5676 5673 5670 5666 5662 5657 5653 5648 5644 5639 5635 5631 5627 5624 5621 5618 5616 5615 5614 5615
5671 5672 5672 5672 5673 5673 5673 5674 5674 5675 5675 5676 5676 5677 5677 5678 5678 5678 5678 5678 5677 5676 5674 5671 5668 5665 5662 5657 5653 5648 5644 5639 5634 5630 5626 5622 5618 5615 5612 5610 5608 5607 5606
5664 5665 5666 5667 5667 5668 5669 5669 5670 5670 5671 5671 5672 5673 5673 5674 5674 5674 5674 5674 5673 5671 5669 5667 5664 5661 5658 5654 5649 5645 5640 5635 5630 5625 5621 5617 5613 5610 5607 5604 5602 5600 5599
5656 5658 5659 5660 5661 5662 5663 5664 5665 5665 5666 5667 5667 5668 5668 5669 5669 5670 5669 5669 5668 5666 5665 5662 5660 5657 5654 5650 5646 5641 5636 5632 5627 5622 5617 5612 5608 5605 5601 5598 5596 5594 5593
5648 5650 5652 5653 5655 5656 5657 5658 5659 5660 5661 5661 5662 5662 5663 5663 5664 5664 5664 5664 5663 5661 5660 5658 5655 5652 5649 5646 5642 5637 5633 5628 5623 5618 5613 5608 5604 5600 5596 5593 5591 5588 5587
5640 5642 5644 5646 5647 5649 5650 5651 5652 5654 5654 5655 5656 5656 5657 5657 5657 5658 5658 5658 5657 5656 5655 5653 5650 5648 5644 5641 5637 5633 5628 5624 5619 5614 5609 5604 5599 5595 5591 5588 5585 5583 5581
5631 5634 5635 5637 5639 5641 5642 5644 5645 5646 5647 5648 5649 5650 5651 5651 5651 5651 5652 5651 5651 5650 5649 5647 5645 5642 5639 5636 5632 5628 5624 5619 5615 5610 5605 5600 5595 5591 5587 5583 5580 5577 5575
5622 5625 5627 5629 5631 5632 5634 5636 5637 5639 5640 5641 5642 5643 5643 5644 5644 5645 5645 5645 5644 5644 5642 5641 5639 5637 5634 5631 5627 5623 5619 5614 5610 5605 5600 5595 5590 5586 5582 5578 5575 5572 5570
5613 5616 5619 5621 5623 5625 5626 5628 5629 5631 5632 5633 5634 5635 5636 5637 5637 5638 5638 5638 5637 5637 5636 5634 5633 5630 5628 5625 5621 5617 5613 5609 5604 5600 5595 5590 5585 5581 5577 5573 5570 5567 5564
5605 5608 5610 5613 5615 5617 5619 5620 5621 5623 5624 5625 5626 5627 5628 5629 5630 5630 5630 5630 5630 5630 5629 5628 5626 5624 5621 5618 5614 5611 5607 5603 5598 5594 5589 5584 5579 5575 5571 5567 5564 5561 5558
5596 5599 5602 5605 5607 5610 5611 5613 5614 5615 5616 5617 5617 5619 5620 5621 5622 5622 5623 5623 5623 5622 5622 5620 5619 5617 5614 5611 5608 5604 5601 5597 5592 5587 5583 5578 5573 5569 5565 5561 5557 5554 5551
5587 5591 5594 5597 5600 5602 5604 5606 5607 5607 5608 5609 5609 5610 5611 5613 5614 5615 5615 5615 5615 5615 5614 5613 5611 5609 5607 5604 5601 5598 5594 5590 5585 5581 5576 5571 5567 5562 5558 5554 5550 5547 5544